TimeMST,TemperatureF,Dew PointF,Humidity,Sea Level PressureIn,VisibilityMPH,Wind Direction,Wind SpeedMPH,Gust SpeedMPH,PrecipitationIn,Events,Conditions,WindDirDegrees,DateUTC
12:53 AM,53.1,42.1,66,29.88,10.0,SSW,3.5,-,N/A,,Clear,210,2013-02-06 07:53:00
1:53 AM,53.1,42.1,66,29.89,10.0,Calm,Calm,-,N/A,,Clear,0,2013-02-06 08:53:00
2:53 AM,51.1,42.1,71,29.88,10.0,Calm,Calm,-,N/A,,Clear,0,2013-02-06 09:53:00
3:53 AM,51.1,43.0,74,29.88,10.0,Calm,Calm,-,N/A,,Clear,0,2013-02-06 10:53:00
4:53 AM,51.1,42.1,71,29.87,10.0,Calm,Calm,-,N/A,,Clear,0,2013-02-06 11:53:00
5:53 AM,52.0,43.0,71,29.88,10.0,Calm,Calm,-,N/A,,Clear,0,2013-02-06 12:53:00
6:53 AM,50.0,42.1,74,29.89,10.0,Calm,Calm,-,N/A,,Mostly Cloudy,0,2013-02-06 13:53:00
7:53 AM,53.1,41.0,64,29.90,10.0,Calm,Calm,-,N/A,,Partly Cloudy,0,2013-02-06 14:53:00
8:53 AM,54.0,43.0,66,29.91,10.0,Calm,Calm,-,N/A,,Clear,0,2013-02-06 15:53:00
9:53 AM,60.1,42.1,51,29.93,10.0,SSE,4.6,-,N/A,,Scattered Clouds,160,2013-02-06 16:53:00
10:53 AM,63.0,42.1,46,29.93,10.0,South,3.5,-,N/A,,Clear,170,2013-02-06 17:53:00
11:53 AM,64.0,41.0,43,29.93,10.0,Calm,Calm,-,N/A,,Overcast,0,2013-02-06 18:53:00
12:53 PM,64.9,42.1,43,29.92,10.0,Calm,Calm,-,N/A,,Partly Cloudy,0,2013-02-06 19:53:00
1:53 PM,69.1,41.0,36,29.90,10.0,Calm,Calm,-,N/A,,Mostly Cloudy,0,2013-02-06 20:53:00
2:53 PM,70.0,42.1,36,29.89,10.0,Calm,Calm,-,N/A,,Clear,0,2013-02-06 21:53:00
3:53 PM,70.0,39.9,33,29.89,10.0,Calm,Calm,-,N/A,,Clear,0,2013-02-06 22:53:00
4:53 PM,70.0,39.9,33,29.90,10.0,SW,6.9,-,N/A,,Clear,230,2013-02-06 23:53:00
5:53 PM,69.1,39.9,35,29.91,10.0,WSW,3.5,-,N/A,,Clear,250,2013-02-07 00:53:00
6:53 PM,66.0,41.0,40,29.93,10.0,Calm,Calm,-,N/A,,Clear,0,2013-02-07 01:53:00
7:53 PM,64.0,41.0,43,29.94,10.0,Calm,Calm,-,N/A,,Clear,0,2013-02-07 02:53:00
8:53 PM,63.0,42.1,46,29.95,10.0,Calm,Calm,-,N/A,,Clear,0,2013-02-07 03:53:00
9:53 PM,59.0,44.1,58,29.96,10.0,Calm,Calm,-,N/A,,Clear,0,2013-02-07 04:53:00
10:53 PM,60.1,44.1,55,29.98,10.0,Calm,Calm,-,N/A,,Mostly Cloudy,0,2013-02-07 05:53:00
11:53 PM,57.0,45.0,64,29.99,10.0,Calm,Calm,-,N/A,,Clear,0,2013-02-07 06:53:00